Year,Month,Day,Hour,Minute,Value (Times are PST for temperature in C)
2024,05,02,00,00,8.00
2024,05,02,00,01,8.00
2024,05,02,00,02,8.00
2024,05,02,00,03,8.00
2024,05,02,00,04,8.00
2024,05,02,00,05,8.00
2024,05,02,00,06,8.00
2024,05,02,00,07,8.00
2024,05,02,00,08,8.00
2024,05,02,00,09,8.00
2024,05,02,00,10,8.00
2024,05,02,00,11,8.00
2024,05,02,00,12,7.90
2024,05,02,00,13,7.90
2024,05,02,00,14,7.90
2024,05,02,00,15,7.90
2024,05,02,00,16,7.90
2024,05,02,00,17,7.90
2024,05,02,00,18,7.90
2024,05,02,00,19,7.90
2024,05,02,00,20,7.90
2024,05,02,00,21,7.90
2024,05,02,00,22,7.80
2024,05,02,00,23,7.80
2024,05,02,00,24,7.80
2024,05,02,00,25,7.80
2024,05,02,00,26,7.80
2024,05,02,00,27,7.80
2024,05,02,00,28,7.80
2024,05,02,00,29,7.80
2024,05,02,00,30,7.80
2024,05,02,00,31,7.80
2024,05,02,00,32,7.80
2024,05,02,00,33,7.80
2024,05,02,00,34,7.80
2024,05,02,00,35,7.80
2024,05,02,00,36,7.80
2024,05,02,00,37,7.80
2024,05,02,00,38,7.80
2024,05,02,00,39,7.80
2024,05,02,00,40,7.80
2024,05,02,00,41,7.80
2024,05,02,00,42,7.80
2024,05,02,00,43,7.80
2024,05,02,00,44,7.80
2024,05,02,00,45,7.80
2024,05,02,00,46,7.80
2024,05,02,00,47,7.80
2024,05,02,00,48,7.80
2024,05,02,00,49,7.80
2024,05,02,00,50,7.80
2024,05,02,00,51,7.80
2024,05,02,00,52,7.80
2024,05,02,00,53,7.80
2024,05,02,00,54,7.80
2024,05,02,00,55,7.80
2024,05,02,00,56,7.80
2024,05,02,00,57,7.80
2024,05,02,00,58,7.80
2024,05,02,00,59,7.80
2024,05,02,01,00,7.80
2024,05,02,01,01,7.80
2024,05,02,01,02,7.80
2024,05,02,01,03,7.80
2024,05,02,01,04,7.80
2024,05,02,01,05,7.80
2024,05,02,01,06,7.80
2024,05,02,01,07,7.80
2024,05,02,01,08,7.80
2024,05,02,01,09,7.80
2024,05,02,01,10,7.80
2024,05,02,01,11,7.80
2024,05,02,01,12,7.80
2024,05,02,01,13,7.80
2024,05,02,01,14,7.70
2024,05,02,01,15,7.70
2024,05,02,01,16,7.70
2024,05,02,01,17,7.60
2024,05,02,01,18,7.60
2024,05,02,01,19,7.60
2024,05,02,01,20,7.60
2024,05,02,01,21,7.60
2024,05,02,01,22,7.60
2024,05,02,01,23,7.60
2024,05,02,01,24,7.50
2024,05,02,01,25,7.50
2024,05,02,01,26,7.50
2024,05,02,01,27,7.40
2024,05,02,01,28,7.40
2024,05,02,01,29,7.40
2024,05,02,01,30,7.40
2024,05,02,01,31,7.40
2024,05,02,01,32,7.40
2024,05,02,01,33,7.30
2024,05,02,01,34,7.30
2024,05,02,01,35,7.30
2024,05,02,01,36,7.30
2024,05,02,01,37,7.30
2024,05,02,01,38,7.30
2024,05,02,01,39,7.30
2024,05,02,01,40,7.30
2024,05,02,01,41,7.30
2024,05,02,01,42,7.30
2024,05,02,01,43,7.30
2024,05,02,01,44,7.30
2024,05,02,01,45,7.30
2024,05,02,01,46,7.30
2024,05,02,01,47,7.30
2024,05,02,01,48,7.30
2024,05,02,01,49,7.30
2024,05,02,01,50,7.30
2024,05,02,01,51,7.30
2024,05,02,01,52,7.30
2024,05,02,01,53,7.30
2024,05,02,01,54,7.30
2024,05,02,01,55,7.30
2024,05,02,01,56,7.30
2024,05,02,01,57,7.30
2024,05,02,01,58,7.30
2024,05,02,01,59,7.30
2024,05,02,02,00,7.30
2024,05,02,02,01,7.30
2024,05,02,02,02,7.30
2024,05,02,02,03,7.30
2024,05,02,02,04,7.30
2024,05,02,02,05,7.40
2024,05,02,02,06,7.40
2024,05,02,02,07,7.40
2024,05,02,02,08,7.40
2024,05,02,02,09,7.40
2024,05,02,02,10,7.40
2024,05,02,02,11,7.40
2024,05,02,02,12,7.40
2024,05,02,02,13,7.40
2024,05,02,02,14,7.40
2024,05,02,02,15,7.40
2024,05,02,02,16,7.40
2024,05,02,02,17,7.40
2024,05,02,02,18,7.40
2024,05,02,02,19,7.30
2024,05,02,02,20,7.30
2024,05,02,02,21,7.30
2024,05,02,02,22,7.30
2024,05,02,02,23,7.30
2024,05,02,02,24,7.30
2024,05,02,02,25,7.40
2024,05,02,02,26,7.40
2024,05,02,02,27,7.40
2024,05,02,02,28,7.40
2024,05,02,02,29,7.40
2024,05,02,02,30,7.40
2024,05,02,02,31,7.40
2024,05,02,02,32,7.40
2024,05,02,02,33,7.40
2024,05,02,02,34,7.40
2024,05,02,02,35,7.40
2024,05,02,02,36,7.40
2024,05,02,02,37,7.40
2024,05,02,02,38,7.40
2024,05,02,02,39,7.40
2024,05,02,02,40,7.40
2024,05,02,02,41,7.40
2024,05,02,02,42,7.40
2024,05,02,02,43,7.40
2024,05,02,02,44,7.40
2024,05,02,02,45,7.40
2024,05,02,02,46,7.40
2024,05,02,02,47,7.40
2024,05,02,02,48,7.40
2024,05,02,02,49,7.40
2024,05,02,02,50,7.40
2024,05,02,02,51,7.40
2024,05,02,02,52,7.40
2024,05,02,02,53,7.40
2024,05,02,02,54,7.40
2024,05,02,02,55,7.40
2024,05,02,02,56,7.40
2024,05,02,02,57,7.50
2024,05,02,02,58,7.50
2024,05,02,02,59,7.50
2024,05,02,03,00,7.50
2024,05,02,03,01,7.50
2024,05,02,03,02,7.50
2024,05,02,03,03,7.50
2024,05,02,03,04,7.50
2024,05,02,03,05,7.50
2024,05,02,03,06,7.50
2024,05,02,03,07,7.50
2024,05,02,03,08,7.50
2024,05,02,03,09,7.50
2024,05,02,03,10,7.50
2024,05,02,03,11,7.50
2024,05,02,03,12,7.50
2024,05,02,03,13,7.50
2024,05,02,03,14,7.60
2024,05,02,03,15,7.60
2024,05,02,03,16,7.60
2024,05,02,03,17,7.60
2024,05,02,03,18,7.60
2024,05,02,03,19,7.60
2024,05,02,03,20,7.60
2024,05,02,03,21,7.60
2024,05,02,03,22,7.60
2024,05,02,03,23,7.60
2024,05,02,03,24,7.50
2024,05,02,03,25,7.50
2024,05,02,03,26,7.50
2024,05,02,03,27,7.50
2024,05,02,03,28,7.50
2024,05,02,03,29,7.40
2024,05,02,03,30,7.40
2024,05,02,03,31,7.40
2024,05,02,03,32,7.40
2024,05,02,03,33,7.40
2024,05,02,03,34,7.40
2024,05,02,03,35,7.30
2024,05,02,03,36,7.30
2024,05,02,03,37,7.30
2024,05,02,03,38,7.30
2024,05,02,03,39,7.30
2024,05,02,03,40,7.30
2024,05,02,03,41,7.30
2024,05,02,03,42,7.30
2024,05,02,03,43,7.30
2024,05,02,03,44,7.30
2024,05,02,03,45,7.30
2024,05,02,03,46,7.30
2024,05,02,03,47,7.30
2024,05,02,03,48,7.30
2024,05,02,03,49,7.30
2024,05,02,03,50,7.30
2024,05,02,03,51,7.30
2024,05,02,03,52,7.30
2024,05,02,03,53,7.30
2024,05,02,03,54,7.30
2024,05,02,03,55,7.30
2024,05,02,03,56,7.30
2024,05,02,03,57,7.40
2024,05,02,03,58,7.40
2024,05,02,03,59,7.40
2024,05,02,04,00,7.40
2024,05,02,04,01,7.40
2024,05,02,04,02,7.40
2024,05,02,04,03,7.40
2024,05,02,04,04,7.40
2024,05,02,04,05,7.40
2024,05,02,04,06,7.40
2024,05,02,04,07,7.40
2024,05,02,04,08,7.40
2024,05,02,04,09,7.40
2024,05,02,04,10,7.30
2024,05,02,04,11,7.30
2024,05,02,04,12,7.30
2024,05,02,04,13,7.30
2024,05,02,04,14,7.30
2024,05,02,04,15,7.30
2024,05,02,04,16,7.30
2024,05,02,04,17,7.30
2024,05,02,04,18,7.30
2024,05,02,04,19,7.30
2024,05,02,04,20,7.30
2024,05,02,04,21,7.30
2024,05,02,04,22,7.30
2024,05,02,04,23,7.30
2024,05,02,04,24,7.30
2024,05,02,04,25,7.30
2024,05,02,04,26,7.30
2024,05,02,04,27,7.30
2024,05,02,04,28,7.30
2024,05,02,04,29,7.30
2024,05,02,04,30,7.30
2024,05,02,04,31,7.30
2024,05,02,04,32,7.20
2024,05,02,04,33,7.20
2024,05,02,04,34,7.20
2024,05,02,04,35,7.20
2024,05,02,04,36,7.20
2024,05,02,04,37,7.20
2024,05,02,04,38,7.20
2024,05,02,04,39,7.20
2024,05,02,04,40,7.20
2024,05,02,04,41,7.20
2024,05,02,04,42,7.20
2024,05,02,04,43,7.20
2024,05,02,04,44,7.10
2024,05,02,04,45,7.10
2024,05,02,04,46,7.10
2024,05,02,04,47,7.10
2024,05,02,04,48,7.00
2024,05,02,04,49,7.00
2024,05,02,04,50,7.00
2024,05,02,04,51,7.00
2024,05,02,04,52,7.00
2024,05,02,04,53,7.00
2024,05,02,04,54,7.00
2024,05,02,04,55,7.00
2024,05,02,04,56,7.00
2024,05,02,04,57,7.00
2024,05,02,04,58,7.00
2024,05,02,04,59,6.90
2024,05,02,05,00,6.90
2024,05,02,05,01,6.90
2024,05,02,05,02,6.90
2024,05,02,05,03,6.90
2024,05,02,05,04,6.90
2024,05,02,05,05,6.90
2024,05,02,05,06,6.90
2024,05,02,05,07,6.90
2024,05,02,05,08,6.90
2024,05,02,05,09,6.90
2024,05,02,05,10,6.80
2024,05,02,05,11,6.80
2024,05,02,05,12,6.80
2024,05,02,05,13,6.80
2024,05,02,05,14,6.80
2024,05,02,05,15,6.80
2024,05,02,05,16,6.80
2024,05,02,05,17,6.80
2024,05,02,05,18,6.80
2024,05,02,05,19,6.80
2024,05,02,05,20,6.80
2024,05,02,05,21,6.80
2024,05,02,05,22,6.80
2024,05,02,05,23,6.80
2024,05,02,05,24,6.80
2024,05,02,05,25,6.80
2024,05,02,05,26,6.80
2024,05,02,05,27,6.80
2024,05,02,05,28,6.80
2024,05,02,05,29,6.80
2024,05,02,05,30,6.80
2024,05,02,05,31,6.80
2024,05,02,05,32,6.80
2024,05,02,05,33,6.80
2024,05,02,05,34,6.80
2024,05,02,05,35,6.80
2024,05,02,05,36,6.80
2024,05,02,05,37,6.80
2024,05,02,05,38,6.80
2024,05,02,05,39,6.70
2024,05,02,05,40,6.70
2024,05,02,05,41,6.70
2024,05,02,05,42,6.70
2024,05,02,05,43,6.70
2024,05,02,05,44,6.70
2024,05,02,05,45,6.70
2024,05,02,05,46,6.70
2024,05,02,05,47,6.60
2024,05,02,05,48,6.60
2024,05,02,05,49,6.60
2024,05,02,05,50,6.60
2024,05,02,05,51,6.60
2024,05,02,05,52,6.60
2024,05,02,05,53,6.60
2024,05,02,05,54,6.60
2024,05,02,05,55,6.60
2024,05,02,05,56,6.60
2024,05,02,05,57,6.60
2024,05,02,05,58,6.70
2024,05,02,05,59,6.70
2024,05,02,06,00,6.70
2024,05,02,06,01,6.70
2024,05,02,06,02,6.60
2024,05,02,06,03,6.60
2024,05,02,06,04,6.60
2024,05,02,06,05,6.60
2024,05,02,06,06,6.70
2024,05,02,06,07,6.70
2024,05,02,06,08,6.70
2024,05,02,06,09,6.70
2024,05,02,06,10,6.70
2024,05,02,06,11,6.70
2024,05,02,06,12,6.70
2024,05,02,06,13,6.60
2024,05,02,06,14,6.70
2024,05,02,06,15,6.70
2024,05,02,06,16,6.70
2024,05,02,06,17,6.70
2024,05,02,06,18,6.70
2024,05,02,06,19,6.70
2024,05,02,06,20,6.70
2024,05,02,06,21,6.70
2024,05,02,06,22,6.70
2024,05,02,06,23,6.70
2024,05,02,06,24,6.70
2024,05,02,06,25,6.70
2024,05,02,06,26,6.70
2024,05,02,06,27,6.70
2024,05,02,06,28,6.70
2024,05,02,06,29,6.70
2024,05,02,06,30,6.70
2024,05,02,06,31,6.70
2024,05,02,06,32,6.70
2024,05,02,06,33,6.70
2024,05,02,06,34,6.70
2024,05,02,06,35,6.70
2024,05,02,06,36,6.70
2024,05,02,06,37,6.70
2024,05,02,06,38,6.80
2024,05,02,06,39,6.80
2024,05,02,06,40,6.80
2024,05,02,06,41,6.80
2024,05,02,06,42,6.80
2024,05,02,06,43,6.80
2024,05,02,06,44,6.80
2024,05,02,06,45,6.80
2024,05,02,06,46,6.80
2024,05,02,06,47,6.80
2024,05,02,06,48,6.90
2024,05,02,06,49,6.90
2024,05,02,06,50,7.00
2024,05,02,06,51,7.00
2024,05,02,06,52,7.00
2024,05,02,06,53,7.10
2024,05,02,06,54,7.20
2024,05,02,06,55,7.20
2024,05,02,06,56,7.20
2024,05,02,06,57,7.20
2024,05,02,06,58,7.30
2024,05,02,06,59,7.30
2024,05,02,07,00,7.30
2024,05,02,07,01,7.30
2024,05,02,07,02,7.30
2024,05,02,07,03,7.30
2024,05,02,07,04,7.40
2024,05,02,07,05,7.50
2024,05,02,07,06,7.50
2024,05,02,07,07,7.50
2024,05,02,07,08,7.50
2024,05,02,07,09,7.50
2024,05,02,07,10,7.60
2024,05,02,07,11,7.60
2024,05,02,07,12,7.60
2024,05,02,07,13,7.60
2024,05,02,07,14,7.60
2024,05,02,07,15,7.60
2024,05,02,07,16,7.70
2024,05,02,07,17,7.70
2024,05,02,07,18,7.70
2024,05,02,07,19,7.80
2024,05,02,07,20,7.80
2024,05,02,07,21,7.80
2024,05,02,07,22,7.80
2024,05,02,07,23,7.80
2024,05,02,07,24,7.80
2024,05,02,07,25,7.70
2024,05,02,07,26,7.70
2024,05,02,07,27,7.70
2024,05,02,07,28,7.70
2024,05,02,07,29,7.70
2024,05,02,07,30,7.70
2024,05,02,07,31,7.70
2024,05,02,07,32,7.70
2024,05,02,07,33,7.70
2024,05,02,07,34,7.70
2024,05,02,07,35,7.70
2024,05,02,07,36,7.80
2024,05,02,07,37,7.80
2024,05,02,07,38,7.80
2024,05,02,07,39,7.80
2024,05,02,07,40,7.80
2024,05,02,07,41,7.90
2024,05,02,07,42,7.90
2024,05,02,07,43,8.00
2024,05,02,07,44,8.00
2024,05,02,07,45,8.10
2024,05,02,07,46,8.20
2024,05,02,07,47,8.20
2024,05,02,07,48,8.20
2024,05,02,07,49,8.30
2024,05,02,07,50,8.30
2024,05,02,07,51,8.30
2024,05,02,07,52,8.30
2024,05,02,07,53,8.40
2024,05,02,07,54,8.50
2024,05,02,07,55,8.50
2024,05,02,07,56,8.60
2024,05,02,07,57,8.70
2024,05,02,07,58,8.70
2024,05,02,07,59,8.80
2024,05,02,08,00,8.80
2024,05,02,08,01,8.80
2024,05,02,08,02,8.80
2024,05,02,08,03,8.80
2024,05,02,08,04,8.80
2024,05,02,08,05,8.70
2024,05,02,08,06,8.70
2024,05,02,08,07,8.70
2024,05,02,08,08,8.70
2024,05,02,08,09,8.70
2024,05,02,08,10,8.70
2024,05,02,08,11,8.70
2024,05,02,08,12,8.70
2024,05,02,08,13,8.70
2024,05,02,08,14,8.80
2024,05,02,08,15,8.80
2024,05,02,08,16,8.80
2024,05,02,08,17,8.90
2024,05,02,08,18,8.90
2024,05,02,08,19,8.90
2024,05,02,08,20,9.00
2024,05,02,08,21,9.00
2024,05,02,08,22,9.10
2024,05,02,08,23,9.20
2024,05,02,08,24,9.30
2024,05,02,08,25,9.30
2024,05,02,08,26,9.40
2024,05,02,08,27,9.50
2024,05,02,08,28,9.50
2024,05,02,08,29,9.50
2024,05,02,08,30,9.40
2024,05,02,08,31,9.40
2024,05,02,08,32,9.40
2024,05,02,08,33,9.50
2024,05,02,08,34,9.50
2024,05,02,08,35,9.60
2024,05,02,08,36,9.70
2024,05,02,08,37,9.70
2024,05,02,08,38,9.70
2024,05,02,08,39,9.70
2024,05,02,08,40,9.70
2024,05,02,08,41,9.70
2024,05,02,08,42,9.70
2024,05,02,08,43,9.70
2024,05,02,08,44,9.70
2024,05,02,08,45,9.70
2024,05,02,08,46,9.60
2024,05,02,08,47,9.60
2024,05,02,08,48,9.70
2024,05,02,08,49,9.70
2024,05,02,08,50,9.70
2024,05,02,08,51,9.80
2024,05,02,08,52,9.90
2024,05,02,08,53,9.90
2024,05,02,08,54,9.90
2024,05,02,08,55,10.00
2024,05,02,08,56,10.10
2024,05,02,08,57,10.10
2024,05,02,08,58,10.10
2024,05,02,08,59,10.10
2024,05,02,09,00,10.10
2024,05,02,09,01,9.90
2024,05,02,09,02,9.90
2024,05,02,09,03,9.90
2024,05,02,09,04,9.90
2024,05,02,09,05,9.90
2024,05,02,09,06,9.90
2024,05,02,09,07,9.90
2024,05,02,09,08,9.90
2024,05,02,09,09,9.90
2024,05,02,09,10,10.10
2024,05,02,09,11,10.10
2024,05,02,09,12,10.10
2024,05,02,09,13,10.20
2024,05,02,09,14,10.20
2024,05,02,09,15,10.20
2024,05,02,09,16,10.10
2024,05,02,09,17,10.10
2024,05,02,09,18,10.10
2024,05,02,09,19,10.10
2024,05,02,09,20,10.10
2024,05,02,09,21,10.20
2024,05,02,09,22,10.20
2024,05,02,09,23,10.20
2024,05,02,09,24,10.30
2024,05,02,09,25,10.40
2024,05,02,09,26,10.40
2024,05,02,09,27,10.50
2024,05,02,09,28,10.60
2024,05,02,09,29,10.60
2024,05,02,09,30,10.60
2024,05,02,09,31,10.70
2024,05,02,09,32,10.70
2024,05,02,09,33,10.70
2024,05,02,09,34,10.80
2024,05,02,09,35,10.80
2024,05,02,09,36,10.80
2024,05,02,09,37,10.80
2024,05,02,09,38,10.80
2024,05,02,09,39,10.70
2024,05,02,09,40,10.60
2024,05,02,09,41,10.60
2024,05,02,09,42,10.60
2024,05,02,09,43,10.60
2024,05,02,09,44,10.60
2024,05,02,09,45,10.60
2024,05,02,09,46,10.60
2024,05,02,09,47,10.60
2024,05,02,09,48,10.60
2024,05,02,09,49,10.70
2024,05,02,09,50,10.80
2024,05,02,09,51,10.80
2024,05,02,09,52,10.90
2024,05,02,09,53,11.10
2024,05,02,09,54,11.10
2024,05,02,09,55,11.10
2024,05,02,09,56,11.30
2024,05,02,09,57,11.30
2024,05,02,09,58,11.20
2024,05,02,09,59,11.10
2024,05,02,10,00,11.10
2024,05,02,10,01,11.10
2024,05,02,10,02,11.00
2024,05,02,10,03,11.10
2024,05,02,10,04,11.10
2024,05,02,10,05,11.10
2024,05,02,10,06,11.20
2024,05,02,10,07,11.20
2024,05,02,10,08,11.20
2024,05,02,10,09,11.20
2024,05,02,10,10,11.10
2024,05,02,10,11,11.00
2024,05,02,10,12,10.90
2024,05,02,10,13,10.80
2024,05,02,10,14,10.80
2024,05,02,10,15,10.70
2024,05,02,10,16,10.70
2024,05,02,10,17,10.70
2024,05,02,10,18,10.70
2024,05,02,10,19,10.60
2024,05,02,10,20,10.60
2024,05,02,10,21,10.60
2024,05,02,10,22,10.70
2024,05,02,10,23,10.80
2024,05,02,10,24,10.80
2024,05,02,10,25,10.90
2024,05,02,10,26,10.90
2024,05,02,10,27,10.90
2024,05,02,10,28,11.00
2024,05,02,10,29,11.10
2024,05,02,10,30,11.10
2024,05,02,10,31,11.10
2024,05,02,10,32,11.10
2024,05,02,10,33,11.20
2024,05,02,10,34,11.30
2024,05,02,10,35,11.30
2024,05,02,10,36,11.40
2024,05,02,10,37,11.40
2024,05,02,10,38,11.50
2024,05,02,10,39,11.40
2024,05,02,10,40,11.40
2024,05,02,10,41,11.40
2024,05,02,10,42,11.50
2024,05,02,10,43,11.40
2024,05,02,10,44,11.40
2024,05,02,10,45,11.50
2024,05,02,10,46,11.60
2024,05,02,10,47,11.60
2024,05,02,10,48,11.60
2024,05,02,10,49,11.50
2024,05,02,10,50,11.40
2024,05,02,10,51,11.40
2024,05,02,10,52,11.40
2024,05,02,10,53,11.60
2024,05,02,10,54,11.70
2024,05,02,10,55,11.80
2024,05,02,10,56,11.80
2024,05,02,10,57,11.80
2024,05,02,10,58,11.80
2024,05,02,10,59,11.80
2024,05,02,11,00,11.80
2024,05,02,11,01,11.80
2024,05,02,11,02,11.70
2024,05,02,11,03,11.70
2024,05,02,11,04,11.70
2024,05,02,11,05,11.70
2024,05,02,11,06,11.80
2024,05,02,11,07,11.80
2024,05,02,11,08,11.90
2024,05,02,11,09,11.90
2024,05,02,11,10,12.00
2024,05,02,11,11,12.00
2024,05,02,11,12,12.00
2024,05,02,11,13,12.00
2024,05,02,11,14,12.00
2024,05,02,11,15,11.90
2024,05,02,11,16,11.90
2024,05,02,11,17,11.90
2024,05,02,11,18,12.00
2024,05,02,11,19,12.10
2024,05,02,11,20,12.20
2024,05,02,11,21,12.40
2024,05,02,11,22,12.50
2024,05,02,11,23,12.60
2024,05,02,11,24,12.70
2024,05,02,11,25,12.80
2024,05,02,11,26,12.80
2024,05,02,11,27,12.70
2024,05,02,11,28,12.60
2024,05,02,11,29,12.50
2024,05,02,11,30,12.40
2024,05,02,11,31,12.40
2024,05,02,11,32,12.40
2024,05,02,11,33,12.50
2024,05,02,11,34,12.60
2024,05,02,11,35,12.50
2024,05,02,11,36,12.40
2024,05,02,11,37,12.40
2024,05,02,11,38,12.30
2024,05,02,11,39,12.30
2024,05,02,11,40,12.30
2024,05,02,11,41,12.30
2024,05,02,11,42,12.20
2024,05,02,11,43,12.20
2024,05,02,11,44,12.30
2024,05,02,11,45,12.50
2024,05,02,11,46,12.60
2024,05,02,11,47,12.60
2024,05,02,11,48,12.60
2024,05,02,11,49,12.60
2024,05,02,11,50,12.70
2024,05,02,11,51,12.70
2024,05,02,11,52,12.70
2024,05,02,11,53,12.70
2024,05,02,11,54,12.70
2024,05,02,11,55,12.80
2024,05,02,11,56,12.80
2024,05,02,11,57,12.80
2024,05,02,11,58,12.80
2024,05,02,11,59,12.80
2024,05,02,12,00,12.80
2024,05,02,12,01,12.70
2024,05,02,12,02,12.60
2024,05,02,12,03,12.50
2024,05,02,12,04,12.40
2024,05,02,12,05,12.30
2024,05,02,12,06,12.30
2024,05,02,12,07,12.30
2024,05,02,12,08,12.40
2024,05,02,12,09,12.50
2024,05,02,12,10,12.60
2024,05,02,12,11,12.70
2024,05,02,12,12,12.90
2024,05,02,12,13,13.00
2024,05,02,12,14,13.10
2024,05,02,12,15,13.20
2024,05,02,12,16,13.40
2024,05,02,12,17,13.50
2024,05,02,12,18,13.50
2024,05,02,12,19,13.50
2024,05,02,12,20,13.60
2024,05,02,12,21,13.50
2024,05,02,12,22,13.50
2024,05,02,12,23,13.30
2024,05,02,12,24,13.30
2024,05,02,12,25,13.30
2024,05,02,12,26,13.30
2024,05,02,12,27,13.50
2024,05,02,12,28,13.50
2024,05,02,12,29,13.30
2024,05,02,12,30,13.30
2024,05,02,12,31,13.20
2024,05,02,12,32,13.10
2024,05,02,12,33,13.00
2024,05,02,12,34,12.90
2024,05,02,12,35,12.80
2024,05,02,12,36,12.90
2024,05,02,12,37,13.00
2024,05,02,12,38,13.20
2024,05,02,12,39,13.30
2024,05,02,12,40,13.40
2024,05,02,12,41,13.50
2024,05,02,12,42,13.60
2024,05,02,12,43,13.70
2024,05,02,12,44,13.80
2024,05,02,12,45,13.90
2024,05,02,12,46,13.90
2024,05,02,12,47,13.90
2024,05,02,12,48,14.00
2024,05,02,12,49,14.00
2024,05,02,12,50,14.00
2024,05,02,12,51,14.00
2024,05,02,12,52,13.90
2024,05,02,12,53,13.90
2024,05,02,12,54,14.00
2024,05,02,12,55,13.90
2024,05,02,12,56,13.90
2024,05,02,12,57,14.00
2024,05,02,12,58,14.20
2024,05,02,12,59,14.20
2024,05,02,13,00,14.30
2024,05,02,13,01,14.40
2024,05,02,13,02,14.40
2024,05,02,13,03,14.30
2024,05,02,13,04,14.20
2024,05,02,13,05,14.00
2024,05,02,13,06,14.00
2024,05,02,13,07,14.00
2024,05,02,13,08,14.00
2024,05,02,13,09,14.10
2024,05,02,13,10,14.20
2024,05,02,13,11,14.20
2024,05,02,13,12,14.20
2024,05,02,13,13,14.20
2024,05,02,13,14,14.20
2024,05,02,13,15,14.20
2024,05,02,13,16,14.20
2024,05,02,13,17,14.30
2024,05,02,13,18,14.30
2024,05,02,13,19,14.40
2024,05,02,13,20,14.50
2024,05,02,13,21,14.60
2024,05,02,13,22,14.60
2024,05,02,13,23,14.60
2024,05,02,13,24,14.70
2024,05,02,13,25,14.70
2024,05,02,13,26,14.80
2024,05,02,13,27,14.70
2024,05,02,13,28,14.60
2024,05,02,13,29,14.60
2024,05,02,13,30,14.60
2024,05,02,13,31,14.60
2024,05,02,13,32,14.60
2024,05,02,13,33,14.60
2024,05,02,13,34,14.60
2024,05,02,13,35,14.60
2024,05,02,13,36,14.60
2024,05,02,13,37,14.60
2024,05,02,13,38,14.50
2024,05,02,13,39,14.50
2024,05,02,13,40,14.50
2024,05,02,13,41,14.40
2024,05,02,13,42,14.40
2024,05,02,13,43,14.40
2024,05,02,13,44,14.50
2024,05,02,13,45,14.50
2024,05,02,13,46,14.40
2024,05,02,13,47,14.40
2024,05,02,13,48,14.30
2024,05,02,13,49,14.30
2024,05,02,13,50,14.20
2024,05,02,13,51,14.10
2024,05,02,13,52,14.10
2024,05,02,13,53,14.20
2024,05,02,13,54,14.30
2024,05,02,13,55,14.30
2024,05,02,13,56,14.30
2024,05,02,13,57,14.30
2024,05,02,13,58,14.50
2024,05,02,13,59,14.50
2024,05,02,14,00,14.50
2024,05,02,14,01,14.50
2024,05,02,14,02,14.50
2024,05,02,14,03,14.50
2024,05,02,14,04,14.50
2024,05,02,14,05,14.60
2024,05,02,14,06,14.60
2024,05,02,14,07,14.60
2024,05,02,14,08,14.60
2024,05,02,14,09,14.60
2024,05,02,14,10,14.60
2024,05,02,14,11,14.50
2024,05,02,14,12,14.50
2024,05,02,14,13,14.50
2024,05,02,14,14,14.50
2024,05,02,14,15,14.50
2024,05,02,14,16,14.50
2024,05,02,14,17,14.50
2024,05,02,14,18,14.60
2024,05,02,14,19,14.60
2024,05,02,14,20,14.70
2024,05,02,14,21,14.80
2024,05,02,14,22,14.80
2024,05,02,14,23,14.80
2024,05,02,14,24,14.80
2024,05,02,14,25,14.90
2024,05,02,14,26,14.90
2024,05,02,14,27,14.90
2024,05,02,14,28,15.00
2024,05,02,14,29,15.00
2024,05,02,14,30,15.00
2024,05,02,14,31,15.00
2024,05,02,14,32,15.10
2024,05,02,14,33,15.10
2024,05,02,14,34,15.10
2024,05,02,14,35,15.20
2024,05,02,14,36,15.20
2024,05,02,14,37,15.20
2024,05,02,14,38,15.20
2024,05,02,14,39,15.10
2024,05,02,14,40,15.10
2024,05,02,14,41,15.00
2024,05,02,14,42,14.90
2024,05,02,14,43,15.00
2024,05,02,14,44,15.00
2024,05,02,14,45,15.00
2024,05,02,14,46,15.00
2024,05,02,14,47,15.10
2024,05,02,14,48,15.10
2024,05,02,14,49,15.10
2024,05,02,14,50,15.10
2024,05,02,14,51,15.10
2024,05,02,14,52,15.20
2024,05,02,14,53,15.30
2024,05,02,14,54,15.40
2024,05,02,14,55,15.50
2024,05,02,14,56,15.50
2024,05,02,14,57,15.40
2024,05,02,14,58,15.50
2024,05,02,14,59,15.50
2024,05,02,15,00,15.50
2024,05,02,15,01,15.50
2024,05,02,15,02,15.50
2024,05,02,15,03,15.50
2024,05,02,15,04,15.50
2024,05,02,15,05,15.60
2024,05,02,15,06,15.70
2024,05,02,15,07,15.70
2024,05,02,15,08,15.70
2024,05,02,15,09,15.70
2024,05,02,15,10,15.70
2024,05,02,15,11,15.80
2024,05,02,15,12,15.90
2024,05,02,15,13,16.00
2024,05,02,15,14,16.10
2024,05,02,15,15,16.00
2024,05,02,15,16,15.90
2024,05,02,15,17,15.80
2024,05,02,15,18,15.80
2024,05,02,15,19,15.70
2024,05,02,15,20,15.70
2024,05,02,15,21,15.70
2024,05,02,15,22,15.80
2024,05,02,15,23,15.80
2024,05,02,15,24,15.80
2024,05,02,15,25,15.80
2024,05,02,15,26,15.80
2024,05,02,15,27,15.80
2024,05,02,15,28,15.80
2024,05,02,15,29,15.80
2024,05,02,15,30,15.80
2024,05,02,15,31,15.80
2024,05,02,15,32,15.80
2024,05,02,15,33,15.80
2024,05,02,15,34,15.80
2024,05,02,15,35,15.80
2024,05,02,15,36,15.70
2024,05,02,15,37,15.70
2024,05,02,15,38,15.60
2024,05,02,15,39,15.60
2024,05,02,15,40,15.60
2024,05,02,15,41,15.70
2024,05,02,15,42,15.70
2024,05,02,15,43,15.70
2024,05,02,15,44,15.80
2024,05,02,15,45,15.90
2024,05,02,15,46,15.90
2024,05,02,15,47,15.90
2024,05,02,15,48,15.90
2024,05,02,15,49,15.90
2024,05,02,15,50,15.90
2024,05,02,15,51,15.90
2024,05,02,15,52,15.90
2024,05,02,15,53,15.90
2024,05,02,15,54,15.90
2024,05,02,15,55,15.90
2024,05,02,15,56,15.90
2024,05,02,15,57,15.90
2024,05,02,15,58,16.00
2024,05,02,15,59,16.10
2024,05,02,16,00,16.10
2024,05,02,16,01,16.10
2024,05,02,16,02,16.10
2024,05,02,16,03,16.10
2024,05,02,16,04,16.10
2024,05,02,16,05,16.10
2024,05,02,16,06,16.20
2024,05,02,16,07,16.30
2024,05,02,16,08,16.30
2024,05,02,16,09,16.30
2024,05,02,16,10,16.30
2024,05,02,16,11,16.40
2024,05,02,16,12,16.40
2024,05,02,16,13,16.40
2024,05,02,16,14,16.40
2024,05,02,16,15,16.40
2024,05,02,16,16,16.40
2024,05,02,16,17,16.40
2024,05,02,16,18,16.40
2024,05,02,16,19,16.40
2024,05,02,16,20,16.40
2024,05,02,16,21,16.40
2024,05,02,16,22,16.40
2024,05,02,16,23,16.40
2024,05,02,16,24,16.40
2024,05,02,16,25,16.40
2024,05,02,16,26,16.40
2024,05,02,16,27,16.40
2024,05,02,16,28,16.40
2024,05,02,16,29,16.40
2024,05,02,16,30,16.40
2024,05,02,16,31,16.60
2024,05,02,16,32,16.60
2024,05,02,16,33,16.60
2024,05,02,16,34,16.70
2024,05,02,16,35,16.70
2024,05,02,16,36,16.80
2024,05,02,16,37,16.80
2024,05,02,16,38,16.80
2024,05,02,16,39,16.80
2024,05,02,16,40,16.80
2024,05,02,16,41,16.80
2024,05,02,16,42,16.70
2024,05,02,16,43,16.70
2024,05,02,16,44,16.60
2024,05,02,16,45,16.60
2024,05,02,16,46,16.70
2024,05,02,16,47,16.60
2024,05,02,16,48,16.60
2024,05,02,16,49,16.50
2024,05,02,16,50,16.50
2024,05,02,16,51,16.50
2024,05,02,16,52,16.60
2024,05,02,16,53,16.60
2024,05,02,16,54,16.60
2024,05,02,16,55,16.60
2024,05,02,16,56,16.70
2024,05,02,16,57,16.70
2024,05,02,16,58,16.60
2024,05,02,16,59,16.60
2024,05,02,17,00,16.60
2024,05,02,17,01,16.60
2024,05,02,17,02,16.70
2024,05,02,17,03,16.70
2024,05,02,17,04,16.70
2024,05,02,17,05,16.80
2024,05,02,17,06,16.90
2024,05,02,17,07,16.90
2024,05,02,17,08,16.90
2024,05,02,17,09,16.90
2024,05,02,17,10,17.00
2024,05,02,17,11,17.00
2024,05,02,17,12,17.10
2024,05,02,17,13,17.20
2024,05,02,17,14,17.20
2024,05,02,17,15,17.30
2024,05,02,17,16,17.30
2024,05,02,17,17,17.40
2024,05,02,17,18,17.40
2024,05,02,17,19,17.40
2024,05,02,17,20,17.40
2024,05,02,17,21,17.30
2024,05,02,17,22,17.30
2024,05,02,17,23,17.30
2024,05,02,17,24,17.30
2024,05,02,17,25,17.20
2024,05,02,17,26,17.10
2024,05,02,17,27,17.10
2024,05,02,17,28,17.00
2024,05,02,17,29,16.90
2024,05,02,17,30,16.90
2024,05,02,17,31,16.90
2024,05,02,17,32,17.00
2024,05,02,17,33,17.00
2024,05,02,17,34,16.90
2024,05,02,17,35,16.90
2024,05,02,17,36,16.90
2024,05,02,17,37,16.80
2024,05,02,17,38,16.80
2024,05,02,17,39,16.80
2024,05,02,17,40,16.80
2024,05,02,17,41,16.90
2024,05,02,17,42,16.80
2024,05,02,17,43,16.80